Weather Roundup
Issued by NWS Springfield, MO

Home | Current Version | Previous Version | Text Only | Print | Product List | Glossary On
Versions: 1 2 3 4 5 6 7 8 9 10 11 12 13 14 15 16 17 18 19 20 21 22 23 24 25 26 27 28 29 30 31 32 33 34 35 36 37 38 39 40 41 42 43 44 45 46 47 48 49 50
000
NZUS99 KSGF 281857
HRRSGF

HOURLY WEATHER
NATIONAL WEATHER SERVICE SPRINGFIELD MO
200 PM CDT SAT MAY 28 2016

......SGF CWA......

CITY           SKY/WX    TMP DP  RH WIND       PRES   REMARKS
SPRINGFIELD    MOSUNNY   78  65  63 W13       29.96R
JOPLIN         PTSUNNY   76  65  68 S12       29.94F
WEST PLAINS    MOSUNNY   79  65  62 S12       29.99F
ROLLA          MOSUNNY   80  67  64 S13       29.92F
BRANSON        MOSUNNY   81  66  61 SW6       29.99S

......SURROUNDING SGF CWA......

CITY           SKY/WX    TMP DP  RH WIND       PRES   REMARKS
CHANUTE        MOSUNNY   77  62  59 SW12      29.92S
PARSONS        MOSUNNY   79  63  57 W10       29.95R
COFFEYVILLE    MOSUNNY   79  62  56 W9        29.93S
EMPORIA        MOSUNNY   73  58  59 W9        29.92S
HARRISON AR    SUNNY     82  66  58 SE7       29.98S

......KANSAS AND MISSOURI......

CITY           SKY/WX    TMP DP  RH WIND       PRES   REMARKS
KANSAS CTY INT MOSUNNY   73  60  63 W15G24    29.88R
SEDALIA        PTSUNNY   78  62  57 SW17G23   29.92R
ST JOSEPH      MOSUNNY   74  60  61 SW13      29.85S
ST LOUIS       PTSUNNY   84  64  50 S13G18    29.92F
WICHITA        MOSUNNY   78  57  48 W7        29.93S
TOPEKA         MOSUNNY   75  60  59 SW13      29.89R
OLATHE         PTSUNNY   73  58  59 W13       29.90R

......TENNESSEE......

CITY           SKY/WX    TMP DP  RH WIND       PRES   REMARKS
MEMPHIS        NOT AVBL
NASHVILLE      CLOUDY    80  63  55 S10       30.09S

......ARKANSAS.......

CITY           SKY/WX    TMP DP  RH WIND       PRES   REMARKS
FAYETTEVILLE   SUNNY     78  66  66 S13       29.97F
FT SMITH       SUNNY     81  65  58 E5        29.96F
LITTLE ROCK    PTSUNNY   82  66  58 SW8       30.00S

......OKLAHOMA.......

CITY           SKY/WX    TMP DP  RH WIND       PRES   REMARKS
TULSA          MOSUNNY   80  63  55 S5        29.92F
PONCA CITY     SUNNY     79  57  46 SW7       29.93F
MCALESTER      MOSUNNY   80  65  59 S5        29.96F
OKLAHOMA CITY  MOSUNNY   80  60  50 W3        29.95F

......IOWA............

CITY           SKY/WX    TMP DP  RH WIND       PRES   REMARKS
DES MOINES     LGT RAIN  66  63  90 SW8       29.79S FOG
QUAD CITIES    MOSUNNY   83  65  54 S13G26    29.83F

......ILLINOIS........

CITY           SKY/WX    TMP DP  RH WIND       PRES   REMARKS
QUINCY         NOT AVBL
CHICAGO        CLOUDY    77  65  66 S16G25    29.92S



USA.gov is the U.S. government's official web portal to all federal, state and local government web resources and services.